Weather History for Kalamazoo, MI

Change the Weather History Date:

Wednesday, January 2, 2008

  Actual Average Record
Temperature  
Mean Temperature 17 °F 25 °F  
Max Temperature 25 °F 31 °F 59 °F (2004)
Min Temperature 9 °F 19 °F -2 °F (2001)
Degree Days  
Heating Degree Days 48 40  
Since 1 July heating degree days 2531  
Moisture  
Dew Point 17 °F    
Average Humidity 85    
Maximum Humidity 93    
Minimum Humidity 80    
Precipitation  
Precipitation 0.02 in 0.06 in 1.07 in (1951)
Snow  
Snow 0.00 in - - ()
Snow Depth 13.00 in    
Sea Level Pressure  
Sea Level Pressure 30.44 in    
Wind  
Wind Speed 9 mph (West)    
Max Wind Speed 16 mph    
Max Gust Speed 23 mph    
Visibility 5 miles    
Events Snow    
T = Trace of Precipitation, MM = Missing Value Source: NWS Daily Summary

Daily Weather History Graph

Daily Weather History Graph

Search for Another Location

Airport:

Trip Planner

Search our weather history database for the weather conditions in past years. The results will help you decide how hot, cold, wet, or windy it might be!

Date:

Astronomy

Jan. 02, 2008 Rise Set
Actual Time 8:11 AM EST 5:21 PM EST
Civil Twilight 7:39 AM EST 5:52 PM EST
Nautical Twilight 7:04 AM EST 6:28 PM EST
Astronomical Twilight 6:30 AM EST 7:02 PM EST
Moon 2:58 AM EST (1/2) 12:59 PM EST (1/2)
Length of Visible Light 10h 13m
Length of Day
9h 10m
Waning Crescent, 28% of the Moon is Illuminated
Jan 2
Waning Crescent
Jan 8
New
Jan 15
First Quarter
Jan 22
Full
Jan 30
Last Quarter

Hourly Weather History & Observations

Time (EST) Temp. Windchill Dew Point Humidity Pressure Visibility Wind Dir Wind Speed Gust Speed Precip Events Conditions
12:17 AM 23.0 °F 11.1 °F 19.4 °F 86% 30.17 in 2.0 mi NW 12.7 mph - 0.00 in Snow Light Snow
12:34 AM 23.0 °F 11.1 °F 19.4 °F 86% 30.17 in 3.0 mi NW 12.7 mph - 0.00 in Snow Light Snow
12:45 AM 23.0 °F 11.1 °F 19.4 °F 86% 30.17 in 1.2 mi NW 12.7 mph - 0.00 in Snow Light Snow
12:53 AM 23.0 °F 11.7 °F 19.9 °F 88% 30.22 in 1.5 mi NW 11.5 mph - 0.00 in Snow Light Snow
1:18 AM 23.0 °F 11.7 °F 19.4 °F 86% 30.19 in 1.2 mi NW 11.5 mph - 0.00 in Snow Light Snow
1:53 AM 23.0 °F 11.7 °F 19.9 °F 88% 30.24 in 1.5 mi NW 11.5 mph - 0.00 in Snow Light Snow
2:18 AM 23.0 °F 11.7 °F 19.4 °F 86% 30.20 in 2.0 mi NW 11.5 mph - 0.00 in Snow Light Snow
2:45 AM 23.0 °F 10.6 °F 19.4 °F 86% 30.22 in 4.0 mi NW 13.8 mph - 0.00 in Snow Light Snow
2:53 AM 23.0 °F 10.6 °F 19.0 °F 85% 30.27 in 5.0 mi NW 13.8 mph - 0.00 in Snow Light Snow
3:07 AM 23.0 °F 10.6 °F 19.4 °F 86% 30.24 in 4.0 mi NW 13.8 mph 23.0 mph 0.00 in Snow Light Snow
3:43 AM 23.0 °F 9.6 °F 19.4 °F 86% 30.25 in 6.0 mi NW 16.1 mph 23.0 mph 0.00 in Snow Light Snow
3:53 AM 23.0 °F 11.1 °F 18.0 °F 81% 30.29 in 5.0 mi NW 12.7 mph 23.0 mph 0.00 in Snow Light Snow
4:53 AM 21.9 °F 10.4 °F 17.1 °F 82% 30.31 in 10.0 mi WNW 11.5 mph 23.0 mph 0.00 in   Overcast
5:53 AM 21.9 °F 9.2 °F 17.1 °F 82% 30.35 in 9.0 mi NW 13.8 mph - 0.00 in Snow Light Snow
6:09 AM 21.2 °F 8.9 °F 17.6 °F 86% 30.32 in 8.0 mi NW 12.7 mph - 0.00 in Snow Light Snow
6:32 AM 21.2 °F 10.9 °F 17.6 °F 86% 30.33 in 9.0 mi NW 9.2 mph - 0.00 in Snow Light Snow
6:53 AM 21.9 °F 9.2 °F 17.1 °F 82% 30.38 in 9.0 mi NW 13.8 mph - 0.00 in Snow Light Snow
7:53 AM 21.9 °F 11.7 °F 17.1 °F 82% 30.40 in 9.0 mi WNW 9.2 mph - 0.00 in Snow Light Snow
8:53 AM 21.9 °F 12.5 °F 18.0 °F 85% 30.43 in 6.0 mi WNW 8.1 mph - 0.00 in Snow Light Snow
9:01 AM 21.2 °F 13.6 °F 17.6 °F 86% 30.38 in 7.0 mi WNW 5.8 mph - 0.00 in Snow Light Snow
9:39 AM 21.2 °F - 17.6 °F 86% 30.40 in 4.0 mi Calm Calm - 0.00 in Snow Light Snow
9:51 AM 21.2 °F 14.9 °F 17.6 °F 86% 30.41 in 4.0 mi WNW 4.6 mph - 0.00 in   Overcast
9:53 AM 21.9 °F 15.7 °F 18.0 °F 85% 30.46 in 5.0 mi WNW 4.6 mph - 0.00 in Snow Light Snow
10:15 AM 21.2 °F 14.9 °F 17.6 °F 86% 30.42 in 8.0 mi West 4.6 mph - 0.00 in Snow Light Snow
10:26 AM 23.0 °F 17.0 °F 17.6 °F 80% 30.43 in 7.0 mi West 4.6 mph - 0.00 in Snow Light Snow
10:45 AM 23.0 °F 17.0 °F 19.4 °F 86% 30.44 in 2.0 mi West 4.6 mph - N/A Snow Light Snow
10:53 AM 23.0 °F 18.4 °F 19.0 °F 85% 30.49 in 2.0 mi West 3.5 mph - 0.00 in Snow Light Snow
11:21 AM 24.8 °F 19.1 °F 19.4 °F 80% 30.45 in 1.5 mi West 4.6 mph - 0.00 in Snow Light Snow
11:53 AM 24.1 °F 17.0 °F 19.9 °F 84% 30.50 in 1.0 mi West 5.8 mph - 0.00 in Snow Light Snow
12:00 PM 24.8 °F 17.9 °F 19.4 °F 80% 30.46 in 1.0 mi West 5.8 mph - 0.00 in Snow Light Snow
12:39 PM 24.8 °F 19.1 °F 21.2 °F 86% 30.46 in 1.2 mi WNW 4.6 mph - 0.01 in Snow Light Snow
12:53 PM 25.0 °F 18.1 °F 21.0 °F 85% 30.51 in 2.5 mi WNW 5.8 mph - 0.01 in Snow Light Snow
1:08 PM 24.8 °F 17.9 °F 21.2 °F 86% 30.46 in 1.8 mi West 5.8 mph - 0.00 in Snow Light Snow
1:21 PM 24.8 °F 16.9 °F 21.2 °F 86% 30.46 in 3.0 mi West 6.9 mph - 0.00 in Snow Light Snow
1:35 PM 24.8 °F 17.9 °F 19.4 °F 80% 30.46 in 1.8 mi West 5.8 mph - 0.00 in Snow Light Snow
1:53 PM 25.0 °F 18.1 °F 19.9 °F 81% 30.51 in 1.2 mi West 5.8 mph - 0.00 in Snow Light Snow
2:05 PM 24.8 °F - 21.2 °F 86% 30.47 in 1.2 mi Calm Calm - 0.00 in Snow Light Snow
2:12 PM 24.8 °F 20.5 °F 21.2 °F 86% 30.47 in 3.0 mi West 3.5 mph - 0.00 in Snow Light Snow
2:20 PM 24.8 °F - 21.2 °F 86% 30.48 in 2.5 mi Calm Calm - 0.00 in Snow Light Snow
2:35 PM 24.8 °F 20.5 °F 19.4 °F 80% 30.48 in 0.8 mi NE 3.5 mph - 0.01 in Snow Light Snow
2:53 PM 21.9 °F 15.7 °F 18.0 °F 85% 30.53 in 1.0 mi WSW 4.6 mph - 0.01 in Snow Light Snow
3:13 PM 21.2 °F 13.6 °F 17.6 °F 86% 30.49 in 0.8 mi SSW 5.8 mph - 0.00 in Snow Light Snow
3:34 PM 19.4 °F 14.3 °F 17.6 °F 93% 30.51 in 1.5 mi Variable 3.5 mph - 0.00 in Snow Light Snow
3:51 PM 19.4 °F 11.5 °F 15.8 °F 86% 30.52 in 1.0 mi South 5.8 mph - 0.00 in Snow Light Snow
3:53 PM 19.9 °F 12.1 °F 16.0 °F 85% 30.57 in 1.5 mi South 5.8 mph - 0.00 in Snow Light Snow
4:20 PM 19.4 °F 12.8 °F 15.8 °F 86% 30.53 in 2.0 mi SSW 4.6 mph - 0.00 in Snow Light Snow
4:34 PM 19.4 °F 12.8 °F 15.8 °F 86% 30.53 in 2.5 mi South 4.6 mph - 0.00 in Snow Light Snow
4:36 PM 19.4 °F 12.8 °F 15.8 °F 86% 30.53 in 3.0 mi South 4.6 mph - 0.00 in Snow Light Snow
4:53 PM 18.0 °F 11.1 °F 14.0 °F 84% 30.59 in 8.0 mi South 4.6 mph - 0.00 in   Overcast
5:53 PM 16.0 °F 6.3 °F 12.0 °F 84% 30.61 in 10.0 mi South 6.9 mph - N/A   Overcast
6:10 PM 15.8 °F 5.1 °F 12.2 °F 86% 30.57 in 10.0 mi SSW 8.1 mph - N/A   Mostly Cloudy
6:53 PM 12.0 °F 4.1 °F 10.0 °F 92% 30.64 in 8.0 mi SSW 4.6 mph - N/A   Mostly Cloudy
7:43 PM 10.4 °F 0.8 °F 6.8 °F 85% 30.60 in 10.0 mi SSW 5.8 mph - N/A   Scattered Clouds
7:53 PM 9.0 °F -0.9 °F 5.0 °F 84% 30.66 in 10.0 mi SSW 5.8 mph - N/A   Scattered Clouds
8:53 PM 10.9 °F 2.9 °F 7.0 °F 84% 30.67 in 10.0 mi SSW 4.6 mph - N/A   Overcast
9:53 PM 12.0 °F 5.9 °F 8.1 °F 84% 30.67 in 9.0 mi SW 3.5 mph - 0.00 in Snow Light Snow
10:53 PM 10.9 °F - 8.1 °F 88% 30.68 in 9.0 mi Calm Calm - 0.00 in   Overcast
11:53 PM 10.9 °F - 7.0 °F 84% 30.69 in 9.0 mi Calm Calm - N/A   Overcast